Portada
METAR-TAF:

METAR-TAF

Aeropuertos :

Greenville, Maine, Estados Unidos

latitud: 45-28N, longitud: 069-35W, altitud: 427 m

Observación

El informe se hizo hace 27 minutos, a las 19:56 UTC
Viento 7 kt del noroeste
Temperatura -6°C
Humedad 25%
Presión 1025 hPa

METAR: KGNR 201956Z AUTO 32007KT M06/M23 A3028 RMK AO1 SLP285 T10611228

Hora: 15:23 (20:23 UTC)


TAF: falta

Observaciones y pronósticos meteorológicos de más de 4000 aeropuertos (mensajes METAR y TAF).

Los puntos amarillos y rojos representan las estaciones disponibles.

Ponga el ratón en el punto deseado para ver el nombre de la estación.

Haga clic para ver las observaciones y los pronósticos meteorológicos.

Para cambiar el mapa : haga clic en los botones verdes con una cruz de color negro para hacer un zoom, en el botón verde con un guión para alejar o en las flechas verdes para mapas adyacentes.


METAR-TAF: